Regional Weather Roundup
Issued by NWS Upton, NY

Home | Current Version | Previous Version | Text Only | Print | Product List | Glossary On
Versions: 1 2 3 4 5 6 7 8 9 10 11 12 13 14 15 16 17 18 19 20 21 22 23 24 25 26 27 28 29 30 31 32 33 34 35 36 37 38 39 40 41 42 43 44 45 46 47 48 49 50
000
ASUS41 KOKX 310705
RWROKX
REGIONAL WEATHER ROUNDUP
NATIONAL WEATHER SERVICE NEW YORK NY
300 AM EDT THU JUL 31 2014

NOTE: "FAIR" INDICATES FEW OR NO CLOUDS BELOW 12,000 FEET WITH NO
SIGNIFICANT WEATHER AND/OR OBSTRUCTIONS TO VISIBILITY.

NYZ071-072-176-178-NJZ106-104-310800-
NEW YORK CITY METRO AREA


CITY           SKY/WX    TMP DP  RH WIND       PRES   REMARKS
CENTRAL PARK   CLEAR     70  54  56 MISG      30.08S
LAGUARDIA APRT PTCLDY    72  56  57 SW6       30.05R
KENNEDY INTL   PTCLDY    67  60  78 SW7       30.07R
NEWARK/LIBERTY PTCLDY    64  55  72 SW5       30.06R
BRNX BOT. GARD   N/A     72  54  53 W7        30.08R
TETERBORO      CLEAR     67  56  67 CALM      30.04S
$$

NYZ177-179-078>081-310800-
LONG ISLAND NEW YORK

CITY           SKY/WX    TMP DP  RH WIND       PRES   REMARKS
FARMINGDALE    CLEAR     64  60  87 CALM      30.06S
ISLIP          CLEAR     67  60  78 CALM      30.05R
SHIRLEY        CLEAR     63  60  90 S3        30.07S
WESTHAMPTON    CLEAR     54  50  86 CALM      30.08S
MONTAUK POINT    N/A     67  62  84 VRB3      30.09R
$$

NYZ052-065-067-310800-
HUDSON VALLEY

CITY           SKY/WX    TMP DP  RH WIND       PRES   REMARKS
WHITE PLAINS   CLEAR     62  59  90 CALM      30.05S
NEWBURGH       CLEAR     61  55  82 CALM      30.06S
MONTGOMERY     CLEAR     56  54  93 CALM      30.05S
POUGHKEEPSIE   CLEAR     59  56  89 CALM      30.04S
ALBANY         CLOUDY    64  56  75 SE3       30.03S
$$

NJZ001-105-106-008-010-013-015-019>022-104-310800-
NEW JERSEY

CITY           SKY/WX    TMP DP  RH WIND       PRES   REMARKS
NEWARK/LIBERTY PTCLDY    64  55  72 SW5       30.06R
TETERBORO      CLEAR     67  56  67 CALM      30.04S
CALDWELL       CLEAR     60  55  83 CALM      30.07R
MORRISTOWN     CLEAR     57  54  88 CALM      30.06F FOG
SOMERVILLE     CLEAR     56  54  93 CALM      30.05S
LINDEN         FAIR      67  56  67 CALM      30.08S
SUSSEX         CLEAR     57  54  89 CALM      30.06S
ANDOVER          N/A     56  55  97 SW3       30.07S
TRENTON        CLEAR     62  56  80 CALM      30.06S
MILLVILLE      CLEAR     57  56  96 CALM      30.08S
ATLANTIC CITY  CLEAR     63  57  81 SW3       30.08S
WRIGHTSTOWN    CLEAR     61  57  89 CALM      30.06S
TOMS RIVER     CLEAR     55  52  88 CALM      30.08S
BELMAR         CLEAR     63  54  72 SW6       30.07F
$$

PAZ047>061-062-071-310800-
EASTERN PENNSYLVANIA

CITY           SKY/WX    TMP DP  RH WIND       PRES   REMARKS
PHILADELPHIA   PTCLDY    66  57  72 S7        30.07S
ALLENTOWN      MOCLDY    63  57  81 CALM      30.06S
SCRANTON       MOCLDY    60  56  86 CALM      30.06F
$$

CTZ002-004>006-009-010-012-RIZ004-006-007-MAZ004-011-015-310800-
SOUTHERN NEW ENGLAND
 IN CT

CITY           SKY/WX    TMP DP  RH WIND       PRES   REMARKS
BRADLEY INTL   CLEAR     60  55  83 CALM      30.04S
HARTFORD       CLEAR     62  57  83 S3        30.05S
DANBURY        CLEAR     57  53  86 SW3       30.07S
WTRBRY/OXFORD  CLEAR     57  52  82 CALM      30.08S
BRIDGEPORT     CLEAR     67  62  84 CALM      30.05S
MERIDEN        CLEAR     56  54  93 CALM      30.06S
NEW HAVEN      CLEAR     68  62  81 CALM      30.05F
CHESTER        FAIR      64  61  88 S5        30.07S
GROTON         CLEAR     60  59  96 NE3       30.06S
WILLIMANTIC    PTCLDY    57  54  89 CALM      30.07S

 IN RI

CITY           SKY/WX    TMP DP  RH WIND       PRES   REMARKS
PROVIDENCE     CLEAR     62  56  80 W5        30.07S
BLOCK ISLAND   CLEAR     64  59  82 SW7       30.08R
WESTERLY       CLEAR     59  56  89 CALM      30.08R

 IN MA

CITY           SKY/WX    TMP DP  RH WIND       PRES   REMARKS
BOSTON         CLEAR     66  55  67 W8        30.05S
WORCESTER      CLEAR     58  53  84 W6        30.07S
WESTFIELD      CLEAR     56  54  93 CALM      30.05S
PROVINCETOWN   CLEAR     64  57  77 SW7       30.07R
NANTUCKET      CLEAR     63  61  93 SW6       30.07S
$$

ANZ330-335-338-340-345-350-353-355-310800-
COASTAL MARINE OBSERVATIONS


STATION/POSITION TIME  SKY/WX   TEMP    WIND        PRES    VSBY  WAVE
                                AIR SEA DIR/SP/G                  HT/PER
                 (UTC)          (F)     (DEG/KT/KT) (MB)    (MI)  (FT/S)
NY HARB ENTRANCE NOT AVBL
4S FIRE IS       NOT AVBL
23SW MTP         0700            70 70              1018.2          3/ 8
HUDSON CANYON    0700            72 74  240/  6/  8 1018.5          3/ 8
EXECUTION ROCKS  0700            69 70  200/  6/  8   N/A
WESTERN LI SOUND 0700            71     210/  6/  8   N/A           0
CENTRAL LI SOUND 0600            71 72  210/ 12/ 14   N/A           1/ 3
EASTERN LI SOUND 0600            68 68  220/  2/  2   N/A
ROBBINS REEF     0700            69     260/  8/ 10   N/A
$$


>>>>>>>>>>>>>>>>>>>>>>>>>>>> KEY <<<<<<<<<<<<<<<<<<<<<<<<<<<
>                                                          <
>     SKY/WX - SKY CONDITION/PRESENT WEATHER               <
>     TMP    - TEMPERATURE IN FAHRENHEIT                   <
>     DP     - DEWPOINT IN FAHRENHEIT                      <
>     RH     - RELATIVE HUMIDITY IN PERCENT                <
>     WIND   - DIRECTION AND SPEED IN MPH                  <
>     PRES   - MEAN SEA LEVEL PRESSURE IN INCHES OF HG     <
>     WCI    - WIND CHILL INDEX                            <
>     VSB    - VISIBILITY IN MILES                         <
>     HX     - HEAT INDEX                                  <
>     TC     - TEMPERATURE IN CELSIUS                      <
>     VRB    - VARIABLE WIND DIRECTION                     <
>                                                          <
>>>>>>>>>>>>>>>>>>>>>>>>>>>> KEY <<<<<<<<<<<<<<<<<<<<<<<<<<<




USA.gov is the U.S. government's official web portal to all federal, state and local government web resources and services.